Location: Unspecified
(0.0000°N, 0.0000°E)
Time: 03:38:31
(UTC+00:00)

Envisat - Pass Details

Date: 14 March 2018
Orbit: 764 x 766 km, 98.2° (Epoch: 21 June)

Event Time Altitude Azimuth Distance (km) Brightness Sun altitude
Exits shadow 19:10:05 19° 59° (ENE) 1,749 4.3 -15.2°
Drops below altitude 10° 19:12:36 10° 30° (NNE) 2,291 5.2 -15.8°
Sets 19:15:24 0° 14° (NNE) 3,213 6.1 -16.6°
